Location: Newark
(53.2000°N, 6.1000°W)
Time: 23:02:17
(UTC+00:00)

ISS - Pass Details

Date: 05 October 2020
Orbit: 417 x 420 km, 51.6° (Epoch: 29 October)

Event Time Altitude Azimuth Distance (km) Brightness Sun altitude
Rises 19:05:31 0° 278° (W) 2,371 2.3 -12.0°
Reaches altitude 10° 19:08:08 10° 257° (WSW) 1,503 0.3 -12.4°
Maximum altitude 19:10:22 17° 216° (SW) 1,161 -1.2 -12.7°
Drops below altitude 10° 19:12:35 10° 174° (S) 1,498 -1.1 -13.1°
Enters shadow 19:13:49 - 162° (SSE) 1,874 -0.7 -13.3°
